Location: Rowland
(34.5359°N, 79.2929°W)
Time: 15:48:15
(UTC+00:00)

SR - Pass Details

Date: 11 October 2022
Orbit: 577 x 875 km, 66.7° (Epoch: 28 November)

Event Time Altitude Azimuth Distance (km) Brightness Sun altitude
Rises 08:40:57 0° 341° (NNW) 3,264 - -33.2°
Reaches altitude 10° 08:43:38 10° 350° (N) 2,282 - -32.7°
Exits shadow 08:47:33 34° 34° (NNE) 1,172 ? -31.9°
Maximum altitude 08:48:25 37° 57° (ENE) 1,104 ? -31.7°
Drops below altitude 10° 08:52:48 10° 124° (SE) 2,088 ? -30.8°
Sets 08:55:09 0° 133° (SE) 2,951 ? -30.4°
